This is the latest recevied weather packets stored in our database for station/object KI5NXU. If no packets are shown the sender has not sent any weather packets the latest 1 day(s).
| Time | Temp. | Humidity | Pressure | Rain* | Wind** | Luminosity | Snow |
|---|---|---|---|---|---|---|---|
| 1778005845 | 30° C | 54% | 1004.9 hPa | 0 mm | 5.81 m/s, 218° | 551 W/m² | - |
| 1778005541 | 30° C | 55% | 1004.8 hPa | 0 mm | 4.92 m/s, 225° | 758 W/m² | - |
| 1778005238 | 30° C | 58% | 1004.8 hPa | 0 mm | 3.13 m/s, 225° | 642 W/m² | - |
| 1778004934 | 29.44° C | 59% | 1004.7 hPa | 0 mm | 3.58 m/s, 231° | 576 W/m² | - |
| 1778004633 | 30° C | 56% | 1004.6 hPa | 0 mm | 5.36 m/s, 224° | 505 W/m² | - |
| 1778004328 | 29.44° C | 58% | 1004.7 hPa | 0 mm | 4.02 m/s, 229° | 777 W/m² | - |
| 1778004027 | 28.89° C | 57% | 1004.7 hPa | 0 mm | 5.36 m/s, 239° | 688 W/m² | - |
| 1778003726 | 28.89° C | 58% | 1004.7 hPa | 0 mm | 4.92 m/s, 225° | 432 W/m² | - |
| 1778003423 | 28.89° C | 60% | 1004.9 hPa | 0 mm | 4.47 m/s, 224° | 506 W/m² | - |
| 1778003120 | 28.89° C | 58% | 1004.7 hPa | 0 mm | 4.02 m/s, 228° | 475 W/m² | - |
| 1778002816 | 28.89° C | 60% | 1004.9 hPa | 0 mm | 2.68 m/s, 226° | 571 W/m² | - |
| 1778002513 | 28.89° C | 59% | 1004.8 hPa | 0 mm | 4.47 m/s, 214° | 665 W/m² | - |
| 1778002210 | 28.33° C | 62% | 1004.9 hPa | 0 mm | 4.02 m/s, 220° | 553 W/m² | - |
| 1778001908 | 28.33° C | 62% | 1004.9 hPa | 0 mm | 3.13 m/s, 230° | 353 W/m² | - |
| 1778001609 | 28.89° C | 61% | 1004.6 hPa | 0 mm | 4.47 m/s, 209° | 408 W/m² | - |
| 1778001304 | 28.89° C | 59% | 1004.9 hPa | 0 mm | 4.47 m/s, 222° | 515 W/m² | - |
| 1778001001 | 28.89° C | 59% | 1004.9 hPa | 0 mm | 5.36 m/s, 225° | 393 W/m² | - |
| 1778000698 | 28.33° C | 59% | 1004.7 hPa | 0 mm | 4.02 m/s, 220° | 530 W/m² | - |
| 1778000394 | 28.33° C | 60% | 1004.6 hPa | 0 mm | 4.47 m/s, 233° | 373 W/m² | - |
| 1778000090 | 28.33° C | 59% | 1004.6 hPa | 0 mm | 1.79 m/s, 239° | 387 W/m² | - |
| 1777999785 | 28.33° C | 58% | 1004.4 hPa | 0 mm | 4.02 m/s, 235° | 354 W/m² | - |
| 1777999482 | 28.33° C | 59% | 1004.6 hPa | 0 mm | 4.92 m/s, 245° | 383 W/m² | - |
| 1777999180 | 28.33° C | 59% | 1004.5 hPa | 0 mm | 4.02 m/s, 218° | 393 W/m² | - |
| 1777998879 | 28.33° C | 59% | 1004.3 hPa | 0 mm | 4.92 m/s, 219° | 486 W/m² | - |
| 1777998577 | 28.33° C | 61% | 1004.5 hPa | 0 mm | 4.92 m/s, 229° | 371 W/m² | - |
* Rain latest hour (hover to see other rain measurements)
** Current wind speed in m/s (hover to see current wind gust speed)